Location: Newark
(50.4348°N, 30.5552°E)
Time: 02:02:21
(UTC+00:00)

Vanguard 3 - Pass Details

Date: 21 January 2020
Orbit: 508 x 3263 km, 33.3° (Epoch: 25 February)

Event Time Altitude Azimuth Distance (km) Brightness Sun altitude
Rises 18:47:24 0° 251° (WSW) 7,110 12.5 -40.1°
Reaches altitude 10° 18:53:00 10° 245° (WSW) 5,873 11.9 -40.9°
Enters shadow 19:06:39 36° 195° (SSW) 3,263 10.0 -42.9°
